Location: *
(49.7115°N, 15.0136°E)
Time: 19:12:10
(UTC+00:00)

Cosmos 2227 Rocket - Pass Details

Date: 27 February 2020
Orbit: 839 x 845 km, 71.0° (Epoch: 03 April)

Event Time Altitude Azimuth Distance (km) Brightness Sun altitude
Rises 19:57:53 0° 326° (NW) 3,407 6.2 -32.2°
Reaches altitude 10° 20:00:27 10° 319° (NW) 2,469 5.4 -32.5°
Enters shadow 20:05:34 40° 255° (WSW) 1,230 3.2 -33.3°
